Torna al catalogo

STUDSAT

AttivoScienzaSSO
NORAD 36796·PAYLOAD·🇮🇳 India

Lanciato Jul 12, 2010 da Satish Dhawan Space Centre

Loading…

Prossimi Passaggi (prossime 24 ore)

TLE

AggiornatoSource: Space-Track

Epoca: Sep 14, 2026, 13:12 UTC

1 36796U 10035B   26257.55049727  .00003213  00000-0  22784-3 0  9996
2 36796  98.0863 168.7666 0012751  91.6012 268.6674 15.05499991878590

Traccia STUDSAT in tempo reale con AllMySat

Download on the App Store